This demonstration page uses our WeatherBlox Daily Observations layout. Learn more.

Left ArrowRight Arrow

39.51506, -84.39828

Hourly Observations for August 13, 2021

Temp ( °F °C ) Dew Point ( °F °C ) Humidity (%) Winds ( mph kmh ) Pressure ( in mb ) Visibility ( mi km ) Precip ( " mm )
12:15 am 00:15 Clear 73 23 N/A N/A W 3 6 30.05 1018 10 16 N/A
12:35 am 00:35 Clear 73 23 N/A N/A N N/A 30.05 1018 10 16 N/A
12:55 am 00:55 Clear 75 24 72 22.2 90 90 N N/A 30.05 1017 10 16 N/A
1:15 am 01:15 Partly Cloudy 74 23.5 73 22.7 95 95 N N/A 30.05 1017 10 16 N/A
1:35 am 01:35 Clear 74 23.5 71 21.9 91 91 NW 3 6 30.06 1018 10 16 N/A
1:55 am 01:55 Clear 73 23 71 21.9 94 94 WNW 3 6 30.05 1018 10 16 N/A
2:15 am 02:15 Clear 73 23 71 21.8 93 93 N N/A 30.05 1018 10 16 N/A
2:35 am 02:35 Clear 74 23.1 71 21.8 92 92 W 5 7 30.04 1017 10 16 N/A
2:55 am 02:55 Partly Cloudy 73 23 72 22 94 94 SSW 3 6 30.05 1018 10 16 N/A
3:15 am 03:15 Mostly Cloudy 73 23 72 22.1 95 95 SSW 5 7 30.04 1017 10 16 N/A
3:35 am 03:35 Mostly Cloudy 74 23.1 72 22.3 95 95 SSW 6 9 30.04 1017 10 16 N/A
3:55 am 03:55 Clear 72 22.4 72 22.2 99 99 WSW 5 7 30.03 1017 10 16 N/A
4:15 am 04:15 Clear 72 22 N/A N/A WNW 3 6 30.04 1017 10 16 N/A
4:35 am 04:35 Clear 72 22 N/A N/A N N/A 30.03 1017 10 16 N/A
4:55 am 04:55 Clear 72 22 N/A N/A WSW 3 6 30.04 1017 10 16 N/A
5:15 am 05:15 Clear 72 22 N/A N/A W 3 6 30.05 1018 10 16 N/A
5:35 am 05:35 Clear 72 22 N/A N/A W 3 6 30.05 1018 10 16 N/A
5:55 am 05:55 Clear 72 22 N/A N/A W 3 6 30.05 1018 10 16 N/A
6:15 am 06:15 Partly Cloudy 72 22 N/A N/A N N/A 30.05 1018 10 16 N/A
6:35 am 06:35 Partly Cloudy 72 22 N/A N/A N N/A 30.06 1018 10 16 N/A
6:55 am 06:55 Sunny 72 22 N/A N/A N N/A 30.06 1018 10 16 N/A
7:15 am 07:15 Sunny 72 22 N/A N/A N N/A 30.06 1018 7 11 N/A
7:35 am 07:35 Sunny 73 23 N/A N/A WSW 3 6 30.07 1018 10 16 N/A
7:55 am 07:55 Partly Cloudy 74 23.1 73 23 99 99 N N/A 30.07 1018 10 16 N/A
8:15 am 08:15 Sunny 75 23.9 74 23.1 95 95 N N/A 30.07 1018 10 16 N/A
8:35 am 08:35 Sunny 76 24.7 74 23.2 91 91 WSW 5 7 30.06 1018 10 16 N/A
8:55 am 08:55 Sunny 77 25 73 23 89 89 SW 9 15 30.06 1018 10 16 N/A
9:15 am 09:15 Sunny 77 25.2 74 23.3 89 89 WSW 7 11 30.06 1018 10 16 N/A
9:35 am 09:35 Sunny 79 25.9 75 23.7 88 88 SW 8 13 30.06 1018 10 16 N/A
9:55 am 09:55 Sunny 80 26.4 74 23.6 85 85 WSW 8 13 30.06 1018 10 16 N/A
10:15 am 10:15 Sunny 81 27.2 74 23.2 79 79 WSW 8 13 30.07 1018 10 16 N/A
10:35 am 10:35 Sunny 82 27.8 73 22.8 74 74 SW 7 11 30.07 1018 10 16 N/A
10:55 am 10:55 Sunny 84 28.8 73 22.7 70 70 WSW 7 11 30.06 1018 10 16 N/A
11:15 am 11:15 Sunny 86 29.8 72 22 63 63 WSW 9 15 30.06 1018 10 16 N/A
11:35 am 11:35 Sunny 85 29.6 73 22.6 66 66 W 8 13 30.07 1018 10 16 N/A
11:55 am 11:55 Sunny 86 30.2 73 22.8 65 65 SW 7 11 30.07 1018 10 16 N/A
12:15 pm 12:15 Sunny 86 30 72 22.4 64 64 W 9 15 30.07 1018 10 16 N/A
12:35 pm 12:35 Sunny 87 30.6 74 23.3 65 65 W 8 13 30.07 1018 10 16 N/A
12:55 pm 12:55 Sunny 87 30.6 73 22.9 64 64 W 9 15 30.06 1018 10 16 N/A
1:15 pm 13:15 Sunny 88 31.2 73 22.9 61 61 W 10 17 30.06 1018 10 16 N/A
1:35 pm 13:35 Sunny 87 30.8 74 23.1 64 64 WSW 9 15 30.05 1018 10 16 N/A
1:55 pm 13:55 Sunny 90 32 74 23.4 60 60 WSW 12 19 30.05 1018 10 16 N/A
2:15 pm 14:15 Sunny 89 31.5 73 23 61 61 WSW 14 22 30.04 1017 10 16 N/A
2:35 pm 14:35 Partly Cloudy 87 30.5 73 23 64 64 W 10 17 30.03 1017 10 16 N/A
2:55 pm 14:55 Sunny with Nearby Thunderstorms 86 29.8 72 22.4 65 65 WNW 13 20 30.03 1017 10 16 N/A
3:15 pm 15:15 Partly Cloudy 86 30 73 22.5 64 64 WNW 10 17 30.03 1017 10 16 N/A
3:35 pm 15:35 Sunny 86 30.2 73 22.9 65 65 WNW 9 15 30.03 1017 10 16 N/A
3:55 pm 15:55 Sunny with Nearby Thunderstorms 85 29.6 74 23.1 68 68 WNW 13 20 30.03 1017 10 16 N/A
4:15 pm 16:15 Partly Cloudy 87 30.3 74 23.2 66 66 W 12 19 30.02 1017 10 16 N/A
4:35 pm 16:35 Partly Cloudy with Nearby Thunderstorms 87 30.3 72 22.1 62 62 WNW 7 11 30.02 1017 10 16 N/A
4:55 pm 16:55 Partly Cloudy 87 30.5 72 22.3 62 62 WNW 9 15 30.02 1017 10 16 N/A
5:35 pm 17:35 Mostly Cloudy 85 29.5 74 23.1 68 68 WNW 9 15 30.03 1017 10 16 N/A
5:55 pm 17:55 Sunny 86 29.9 73 22.8 66 66 W 8 13 30.03 1017 10 16 N/A
6:15 pm 18:15 Sunny 85 29.6 73 23 68 68 WNW 9 15 30.02 1017 10 16 N/A
6:35 pm 18:35 Sunny 85 29.3 73 22.9 68 68 NNW 8 13 30.01 1016 10 16 N/A
6:55 pm 18:55 Sunny 85 29.3 73 22.9 68 68 W 6 9 30.01 1016 10 16 N/A
7:15 pm 19:15 Sunny 84 28.7 73 22.6 70 70 NNW 8 13 30.02 1017 10 16 N/A
7:35 pm 19:35 Mostly Cloudy 83 28.2 73 23 73 73 NW 7 11 30.04 1017 10 16 N/A
7:55 pm 19:55 Cloudy 82 27.8 73 22.6 73 73 NW 7 11 30.06 1018 10 16 N/A
8:15 pm 20:15 Cloudy 81 27.3 74 23.1 78 78 WNW 3 6 30.07 1018 10 16 N/A
8:35 pm 20:35 Cloudy 81 27.3 72 22.4 75 75 W 5 7 30.07 1018 10 16 N/A
8:55 pm 20:55 Mostly Cloudy 80 26.7 73 22.9 80 80 W 3 6 30.07 1018 10 16 N/A
9:15 pm 21:15 Clear 79 26.1 74 23.4 85 85 W 5 7 30.07 1018 10 16 N/A
9:35 pm 21:35 Clear 77 24.8 74 23.3 91 91 N N/A 30.07 1018 10 16 N/A
9:55 pm 21:55 Clear 76 24.3 72 22.2 88 88 W 6 9 30.08 1019 10 16 N/A
10:15 pm 22:15 Partly Cloudy 76 24.4 71 21.9 86 86 SW 6 9 30.09 1019 10 16 N/A
10:35 pm 22:35 Cloudy 77 24.9 73 22.6 87 87 W 3 6 30.08 1019 10 16 N/A
10:55 pm 22:55 Mostly Cloudy 78 25.3 71 21.7 81 81 SSW 12 19 30.10 1019 10 16 N/A
11:15 pm 23:15 Partly Cloudy 77 24.8 71 21.5 82 82 SW 8 13 30.10 1019 10 16 N/A
11:35 pm 23:35 Clear 75 24.1 71 21.7 87 87 W 5 7 30.10 1019 10 16 N/A
11:55 pm 23:55 Clear 75 23.8 71 21.6 88 88 N N/A 30.10 1019 10 16 N/A

Powered by AerisWeather